Terug naar catalogus

DELTA 1 DEB

ActiefSSO
NORAD 18775·DEBRIS·🇺🇸 United States

Gelanceerd Mar 5, 1978 vanaf Vandenberg Space Force Base

Loading…

Volgende Passages (komende 24 uur)

TLE

VersSource: Space-Track

Epoch: Sep 13, 2026, 16:04 UTC

1 18775U 78026HH  26256.66968040  .00000621  00000-0  44754-3 0  9997
2 18775  99.1293 160.9013 0064997 107.0844 253.7453 13.99581789928842

Volg DELTA 1 DEB in realtime met AllMySat

Download on the App Store